FW5164 Weather Reports


Display with metric or nautical units.
time (UTC)temp
F
wind
direction
speed
MPH
gust
MPH
rain 1hr
in
rain 24hr
in
rain mn
in
humidity
%
barometer
mb
20260506123551 59 332 6.0 11.0 0.00 0.01 0.01 91 1012.1
20260506123053 59 331 7.0 14.0 0.00 0.01 0.01 91 1012.1
20260506123049 58 25 5.0 11.0 0.00 0.00 0.00 88 1012.5
20260506122550 59 293 9.0 14.0 0.00 0.01 0.01 91 1012.1
20260506122050 59 291 7.0 12.0 0.00 0.01 0.01 91 1012.1
20260506121557 58 19 4.0 12.0 0.00 0.00 0.00 87 1012.2
20260506121549 59 300 7.0 13.0 0.00 0.01 0.01 91 1011.9
20260506121050 59 289 9.0 13.0 0.00 0.01 0.01 90 1011.8
20260506120550 59 321 8.0 12.0 0.00 0.01 0.01 90 1011.8
20260506120058 59 315 7.0 12.0 0.01 0.01 0.01 90 1011.8
20260506120048 58 54 6.0 12.0 0.00 0.00 0.00 87 1012.0
20260506115553 59 294 6.0 13.0 0.01 0.01 0.01 90 1011.7
20260506115050 60 276 8.0 15.0 0.01 0.01 0.01 90 1011.6
20260506114553 59 33 5.0 11.0 0.00 0.00 0.00 87 1011.8
20260506114050 60 307 7.0 14.0 0.01 0.01 0.01 90 1011.5
20260506113549 60 298 8.0 15.0 0.01 0.01 0.01 90 1011.4
20260506113053 60 275 8.0 16.0 0.01 0.01 0.01 90 1011.4
20260506113049 60 20 6.0 10.0 0.00 0.00 0.00 86 1011.4
20260506112551 61 299 11.0 16.0 0.01 0.01 0.01 90 1011.4
20260506112049 61 343 10.0 15.0 0.01 0.01 0.01 90 1011.2
20260506111554 60 17 4.0 9.0 0.00 0.00 0.00 86 1011.3
20260506111053 61 320 9.0 14.0 0.01 0.01 0.01 89 1011.0
20260506110550 61 336 8.0 12.0 0.01 0.01 0.01 89 1010.8
20260506110054 62 332 7.0 12.0 0.00 0.00 0.00 89 1010.8
20260506105551 62 300 8.0 12.0 0.00 0.00 0.00 89 1010.4
20260506105053 62 328 6.0 12.0 0.00 0.00 0.00 89 1010.4
20260506104556 62 44 6.0 10.0 0.00 0.00 0.00 84 1010.9
20260506104049 62 296 9.0 16.0 0.00 0.00 0.00 88 1010.4
20260506103549 62 300 8.0 16.0 0.00 0.00 0.00 88 1010.4
20260506103101 64 38 4.0 10.0 0.00 0.00 0.00 83 1010.3
20260506103052 63 311 8.0 13.0 0.00 0.00 0.00 88 1010.3
20260506102550 63 327 8.0 13.0 0.00 0.00 0.00 88 1010.2
20260506102050 63 298 8.0 13.0 0.00 0.00 0.00 88 1010.2
20260506101552 63 301 9.0 16.0 0.00 0.00 0.00 87 1010.2
20260506101550 65 42 7.0 12.0 0.00 0.00 0.00 82 1010.0
20260506101052 64 318 7.0 16.0 0.00 0.00 0.00 87 1010.0
20260506100550 64 287 10.0 15.0 0.00 0.00 0.00 87 1009.9
20260506100053 67 41 8.0 13.0 0.00 0.00 0.00 80 1009.9
20260506095550 65 300 8.0 16.0 0.00 0.00 0.00 86 1009.7
20260506095054 65 274 7.0 15.0 0.00 0.00 0.00 85 1009.7
20260506094611 66 304 9.0 16.0 0.00 0.00 0.00 85 1009.6
20260506094601 70 21 6.0 11.0 0.00 0.00 0.00 81 1009.6
20260506094052 66 296 9.0 16.0 0.00 0.00 0.00 84 1009.6
20260506093553 67 290 10.0 16.0 0.00 0.00 0.00 84 1009.6
20260506093051 68 285 10.0 16.0 0.00 0.00 0.00 83 1009.5
20260506093049 75 0 0.0 5.0 0.00 0.00 0.00 86 1009.4
20260506092550 68 305 9.0 14.0 0.00 0.00 0.00 83 1009.3
20260506092050 69 309 6.0 14.0 0.00 0.00 0.00 83 1009.3
20260506091554 70 292 6.0 13.0 0.00 0.00 0.00 83 1009.2
20260506091549 75 245 2.0 8.0 0.00 0.00 0.00 86 1009.3
20260506091050 71 303 7.0 13.0 0.00 0.00 0.00 83 1009.1
20260506090549 73 279 5.0 11.0 0.00 0.00 0.00 84 1009.2
20260506090051 74 144 4.0 7.0 0.00 0.00 0.00 87 1009.1
20260506085549 74 154 2.0 9.0 0.00 0.00 0.00 87 1008.9
20260506085053 74 146 2.0 9.0 0.00 0.00 0.00 87 1009.1
20260506084602 75 234 2.0 9.0 0.00 0.00 0.00 86 1009.4
20260506084557 74 144 5.0 9.0 0.00 0.00 0.00 87 1009.1
20260506084050 74 153 4.0 10.0 0.00 0.00 0.00 87 1009.1
20260506083553 74 165 4.0 10.0 0.00 0.00 0.00 87 1009.0
20260506083057 74 139 4.0 11.0 0.00 0.00 0.00 87 1009.0
20260506083050 75 241 2.0 8.0 0.00 0.00 0.00 86 1009.2
20260506082550 74 163 5.0 12.0 0.00 0.00 0.00 87 1009.0
20260506082050 74 130 4.0 12.0 0.00 0.00 0.00 86 1009.0
20260506081548 74 150 6.0 12.0 0.00 0.00 0.00 86 1009.0
20260506081051 74 140 6.0 14.0 0.00 0.00 0.00 86 1009.1
20260506080551 74 163 9.0 14.0 0.00 0.00 0.00 86 1009.0
20260506080106 74 145 6.0 11.0 0.00 0.00 0.00 86 1009.0
20260506073106 75 153 8.0 13.0 0.00 0.00 0.00 86 1009.2
20260506073059 75 246 1.0 4.0 0.00 0.00 0.00 86 1009.6
20260506072550 75 109 7.0 14.0 0.00 0.00 0.00 86 1009.3
20260506072048 75 167 9.0 14.0 0.00 0.00 0.00 86 1009.3
20260506071555 75 246 2.0 4.0 0.00 0.00 0.00 86 1009.5
20260506071053 75 140 6.0 11.0 0.00 0.00 0.00 86 1009.4
20260506070550 75 138 5.0 11.0 0.00 0.00 0.00 86 1009.3
20260506062049 75 141 6.0 10.0 0.00 0.00 0.00 85 1009.1
20260506061556 75 147 6.0 10.0 0.00 0.00 0.00 85 1009.2
20260506061049 75 134 4.0 11.0 0.00 0.00 0.00 85 1009.2
20260506060549 75 131 5.0 11.0 0.00 0.00 0.00 85 1009.2
20260506051049 76 132 6.0 13.0 0.00 0.00 0.00 84 1008.6
20260506050550 76 147 8.0 13.0 0.00 0.00 0.00 83 1008.6
20260506050110 76 243 4.0 10.0 0.00 0.00 0.00 84 1008.6
20260506045049 76 145 7.0 14.0 0.00 0.00 0.00 83 1008.4
20260506044558 76 111 7.0 14.0 0.00 0.00 0.00 83 1008.5
20260506044554 76 209 6.0 12.0 0.00 0.00 0.00 84 1008.7
20260506044049 76 132 8.0 14.0 0.00 0.00 0.00 83 1008.5
20260506043549 76 115 8.0 14.0 0.00 0.00 0.00 83 1008.4
20260506043059 76 234 4.0 10.0 0.00 0.00 0.00 84 1008.6
20260506043049 76 136 8.0 14.0 0.00 0.00 0.00 83 1008.6
20260506042550 76 143 8.0 14.0 0.00 0.00 0.00 83 1008.4
20260506042049 76 131 8.0 15.0 0.00 0.00 0.00 83 1008.4
20260506041600 76 230 4.0 8.0 0.00 0.00 0.00 83 1008.7
20260506041556 76 145 8.0 15.0 0.00 0.00 0.00 83 1008.3
20260506041049 76 150 8.0 15.0 0.00 0.00 0.00 83 1008.4
20260506040549 76 126 5.0 14.0 0.00 0.00 0.00 83 1008.1
20260506040104 76 225 3.0 6.0 0.00 0.00 0.00 83 1008.7
20260506040052 76 153 8.0 14.0 0.00 0.00 0.00 83 1008.3
20260506035550 76 132 7.0 12.0 0.00 0.00 0.00 82 1008.1
20260506035049 76 116 7.0 12.0 0.00 0.00 0.00 82 1008.0
20260506034604 76 233 2.0 7.0 0.00 0.00 0.00 83 1008.6
20260506034557 76 106 7.0 12.0 0.00 0.00 0.00 82 1008.0
20260506034049 76 115 6.0 12.0 0.00 0.00 0.00 82 1008.2
20260506033549 76 137 3.0 9.0 0.00 0.00 0.00 82 1007.8
20260506033101 76 140 5.0 11.0 0.00 0.00 0.00 81 1007.9
20260506033055 76 232 5.0 11.0 0.00 0.00 0.00 83 1007.7
20260506032550 77 131 5.0 11.0 0.00 0.00 0.00 81 1007.6
20260506032050 77 130 6.0 12.0 0.00 0.00 0.00 80 1007.5
20260506031600 76 204 5.0 10.0 0.00 0.00 0.00 83 1007.5
20260506031555 77 121 7.0 15.0 0.00 0.00 0.00 80 1007.2
20260506031049 77 136 7.0 15.0 0.00 0.00 0.00 80 1007.2
20260506030552 77 134 8.0 13.0 0.00 0.00 0.00 80 1007.1
20260506025549 77 142 6.0 13.0 0.00 0.00 0.00 80 1006.7
20260506025053 77 115 7.0 15.0 0.00 0.00 0.00 79 1006.7
20260506024610 77 145 8.0 15.0 0.00 0.00 0.00 79 1006.6
20260506024559 76 188 2.0 5.0 0.00 0.00 0.00 82 1006.9
20260506024049 77 108 9.0 14.0 0.00 0.00 0.00 79 1006.5
20260506023551 77 142 9.0 13.0 0.00 0.00 0.00 79 1006.2
20260506023102 77 109 7.0 13.0 0.00 0.00 0.00 79 1006.3
20260506023056 77 217 3.0 8.0 0.00 0.00 0.00 81 1006.8
20260506022549 77 125 7.0 11.0 0.00 0.00 0.00 78 1006.4
20260506022050 77 118 5.0 11.0 0.00 0.00 0.00 78 1006.7
20260506021603 77 221 4.0 6.0 0.00 0.00 0.00 81 1006.8
20260506021559 77 123 7.0 11.0 0.00 0.00 0.00 78 1006.7
20260506021048 77 132 5.0 10.0 0.00 0.00 0.00 78 1006.7
20260506020549 78 146 4.0 9.0 0.00 0.00 0.00 78 1006.6
20260506020052 77 214 4.0 6.0 0.00 0.00 0.00 80 1006.7
20260506015551 78 133 4.0 11.0 0.00 0.00 0.00 78 1006.6
20260506015049 78 146 4.0 11.0 0.00 0.00 0.00 77 1006.4
20260506014554 78 237 2.0 4.0 0.00 0.00 0.00 79 1006.6
20260506014051 78 119 4.0 12.0 0.00 0.00 0.00 77 1006.3
20260506013550 78 98 5.0 12.0 0.00 0.00 0.00 76 1006.4
20260506013059 79 119 5.0 12.0 0.00 0.00 0.00 76 1006.3
20260506013057 79 240 2.0 5.0 0.00 0.00 0.00 78 1006.7
20260506012549 79 114 4.0 10.0 0.00 0.00 0.00 75 1006.2
20260506012050 79 132 3.0 12.0 0.00 0.00 0.00 75 1006.3
20260506011620 79 132 6.0 16.0 0.00 0.00 0.00 75 1006.2
20260506011603 79 240 2.0 5.0 0.00 0.00 0.00 76 1006.5
20260506011052 79 150 6.0 16.0 0.00 0.00 0.00 74 1006.2
20260506010549 79 119 7.0 16.0 0.00 0.00 0.00 74 1006.0
20260506010056 80 144 9.0 15.0 0.00 0.00 0.00 74 1005.9
20260506010051 80 260 4.0 7.0 0.00 0.00 0.00 75 1006.3
20260506005550 80 137 7.0 13.0 0.00 0.00 0.00 74 1006.0
20260506005052 80 115 8.0 14.0 0.00 0.00 0.00 73 1005.8
20260506004548 80 130 8.0 17.0 0.00 0.00 0.00 73 1005.7
20260506004049 80 125 6.0 17.0 0.00 0.00 0.00 73 1005.9
20260506003550 80 148 9.0 21.0 0.00 0.00 0.00 73 1005.9
20260506003056 81 140 8.0 21.0 0.00 0.00 0.00 72 1005.9
20260506003053 81 240 3.0 9.0 0.00 0.00 0.00 72 1006.2
20260506002549 81 101 8.0 22.0 0.00 0.00 0.00 72 1005.7
20260506002049 81 109 13.0 22.0 0.00 0.00 0.00 71 1005.8
20260506001557 81 130 9.0 16.0 0.00 0.00 0.00 71 1005.9
20260506001554 82 218 5.0 9.0 0.00 0.00 0.00 71 1006.1
20260506001050 82 136 9.0 18.0 0.00 0.00 0.00 71 1005.8
20260506000549 82 135 10.0 18.0 0.00 0.00 0.00 71 1005.9
20260506000101 82 126 10.0 17.0 0.00 0.00 0.00 70 1006.2
20260506000055 83 238 6.0 12.0 0.00 0.00 0.00 71 1006.2
20260505235549 82 137 10.0 18.0 0.00 0.00 0.00 70 1006.0
20260505235049 82 143 9.0 18.0 0.00 0.00 0.00 70 1005.9
20260505234606 83 229 4.0 9.0 0.00 0.00 0.00 71 1006.2
20260505234554 82 108 7.0 17.0 0.00 0.00 0.00 70 1005.9
20260505234053 82 137 11.0 18.0 0.00 0.00 0.00 69 1005.9
20260505233549 82 134 10.0 22.0 0.00 0.00 0.00 70 1005.9
20260505233058 82 138 11.0 22.0 0.00 0.00 0.00 70 1005.7
20260505233053 83 259 5.0 12.0 0.00 0.00 0.00 71 1006.0
20260505232549 83 132 12.0 22.0 0.00 0.00 0.00 69 1005.6
20260505232050 83 110 11.0 19.0 0.00 0.00 0.00 68 1005.6
20260505231606 82 217 6.0 16.0 0.00 0.00 0.00 71 1005.7
20260505231600 83 166 11.0 19.0 0.00 0.00 0.00 69 1005.4
20260505231049 82 152 9.0 19.0 0.00 0.00 0.00 69 1005.2
20260505230549 82 157 11.0 19.0 0.00 0.00 0.00 69 1005.4
20260505230053 83 244 6.0 12.0 0.00 0.00 0.00 70 1005.5
20260505225549 82 135 8.0 22.0 0.00 0.00 0.00 69 1005.4
20260505225049 83 155 13.0 25.0 0.00 0.00 0.00 69 1005.3
20260505224555 83 137 14.0 26.0 0.00 0.00 0.00 68 1005.4
20260505224550 83 205 7.0 19.0 0.00 0.00 0.00 70 1005.6
20260505224049 83 93 14.0 26.0 0.00 0.00 0.00 68 1005.2
20260505223550 83 98 10.0 20.0 0.00 0.00 0.00 70 1005.2
20260505223102 83 248 6.0 14.0 0.00 0.00 0.00 71 1005.5
20260505223057 83 131 12.0 20.0 0.00 0.00 0.00 68 1005.3
20260505222549 83 137 12.0 22.0 0.00 0.00 0.00 69 1005.2
20260505222049 83 111 12.0 22.0 0.00 0.00 0.00 69 1005.3
20260505221602 83 138 12.0 22.0 0.00 0.00 0.00 69 1005.2
20260505221557 83 264 5.0 18.0 0.00 0.00 0.00 71 1005.6
20260505221049 83 130 12.0 22.0 0.00 0.00 0.00 70 1005.3
20260505220549 83 131 11.0 25.0 0.00 0.00 0.00 69 1005.4
20260505220107 82 117 12.0 25.0 0.00 0.00 0.00 70 1005.4
20260505220055 82 248 6.0 17.0 0.00 0.00 0.00 71 1005.8
20260505215549 82 138 11.0 21.0 0.00 0.00 0.00 69 1005.5
20260505215049 83 140 11.0 23.0 0.00 0.00 0.00 70 1005.6
20260505214613 82 221 6.0 17.0 0.00 0.00 0.00 71 1006.0
20260505214554 82 125 14.0 25.0 0.00 0.00 0.00 70 1005.5
20260505214049 82 110 11.0 25.0 0.00 0.00 0.00 69 1005.7
20260505213548 83 150 14.0 25.0 0.00 0.00 0.00 68 1005.9
20260505213101 83 245 6.0 14.0 0.00 0.00 0.00 71 1006.3
20260505213056 83 147 12.0 23.0 0.00 0.00 0.00 68 1005.8
20260505212548 83 177 12.0 26.0 0.00 0.00 0.00 69 1005.9
20260505212050 83 137 10.0 26.0 0.00 0.00 0.00 69 1005.9
20260505211611 83 123 11.0 22.0 0.00 0.00 0.00 68 1006.0
20260505211558 82 226 8.0 20.0 0.00 0.00 0.00 70 1006.4
20260505211050 83 128 13.0 22.0 0.00 0.00 0.00 69 1006.0
20260505210550 83 143 12.0 22.0 0.00 0.00 0.00 69 1006.1
20260505210058 83 92 11.0 22.0 0.00 0.00 0.00 69 1006.2
20260505210055 83 275 7.0 13.0 0.00 0.00 0.00 70 1006.6
20260505205549 83 162 10.0 23.0 0.00 0.00 0.00 69 1006.4
20260505205049 83 130 9.0 23.0 0.00 0.00 0.00 70 1006.4
20260505204611 83 135 12.0 23.0 0.00 0.00 0.00 68 1006.5
20260505204553 83 259 9.0 17.0 0.00 0.00 0.00 70 1006.8
20260505204049 83 158 12.0 22.0 0.00 0.00 0.00 68 1006.6
20260505203552 84 128 9.0 22.0 0.00 0.00 0.00 68 1006.5
20260505203106 83 148 12.0 25.0 0.00 0.00 0.00 70 1006.5
20260505203050 82 219 6.0 14.0 0.00 0.00 0.00 71 1006.9
20260505202549 82 131 12.0 25.0 0.00 0.00 0.00 69 1006.5
20260505202049 82 116 12.0 21.0 0.00 0.00 0.00 69 1006.5
20260505201600 81 128 12.0 20.0 0.00 0.00 0.00 71 1006.6
20260505201554 83 257 6.0 20.0 0.00 0.00 0.00 71 1006.9
20260505201049 81 122 10.0 20.0 0.00 0.00 0.00 71 1006.5
20260505200551 82 148 12.0 26.0 0.00 0.00 0.00 69 1006.5
20260505200058 82 261 5.0 18.0 0.00 0.00 0.00 72 1006.9
20260505200055 83 168 15.0 26.0 0.00 0.00 0.00 68 1006.6
20260505195548 83 143 12.0 23.0 0.00 0.00 0.00 68 1006.6
20260505195048 83 165 12.0 23.0 0.00 0.00 0.00 68 1006.6
20260505194600 83 136 13.0 22.0 0.00 0.00 0.00 70 1006.5
20260505194547 82 239 9.0 15.0 0.00 0.00 0.00 72 1007.1
20260505194050 82 151 14.0 23.0 0.00 0.00 0.00 70 1006.8
20260505193551 82 129 14.0 24.0 0.00 0.00 0.00 68 1006.9
20260505193056 82 110 11.0 24.0 0.00 0.00 0.00 70 1006.9
20260505193049 82 265 9.0 16.0 0.00 0.00 0.00 72 1007.2
20260505192550 82 142 12.0 22.0 0.00 0.00 0.00 70 1007.0
20260505192049 82 163 11.0 20.0 0.00 0.00 0.00 71 1006.9
20260505191555 81 142 12.0 25.0 0.00 0.00 0.00 71 1007.1
20260505191551 80 229 8.0 20.0 0.00 0.00 0.00 73 1007.2
20260505191049 81 151 13.0 25.0 0.00 0.00 0.00 71 1006.9
20260505190548 80 146 13.0 24.0 0.00 0.00 0.00 72 1007.0
20260505190056 80 109 14.0 25.0 0.00 0.00 0.00 72 1006.8
20260505190050 80 254 7.0 19.0 0.00 0.00 0.00 74 1007.3
20260505185550 80 127 14.0 31.0 0.00 0.00 0.00 72 1006.8
20260505185049 80 144 14.0 31.0 0.00 0.00 0.00 71 1006.8
20260505184555 80 126 15.0 26.0 0.00 0.00 0.00 71 1007.0
20260505184551 80 245 10.0 24.0 0.00 0.00 0.00 75 1007.4
20260505184049 80 142 11.0 29.0 0.00 0.00 0.00 71 1007.1
20260505183552 80 131 16.0 29.0 0.00 0.00 0.00 71 1007.2
20260505183102 79 256 9.0 19.0 0.00 0.00 0.00 74 1007.8
20260505183056 80 119 13.0 28.0 0.00 0.00 0.00 72 1007.2
20260505182549 80 143 15.0 28.0 0.00 0.00 0.00 71 1007.2
20260505182049 80 162 11.0 22.0 0.00 0.00 0.00 71 1007.3
20260505181553 79 228 9.0 23.0 0.00 0.00 0.00 76 1008.0
20260505181050 79 173 12.0 28.0 0.00 0.00 0.00 72 1007.5
20260505180549 78 134 18.0 28.0 0.00 0.00 0.00 74 1007.4
20260505180056 78 149 14.0 28.0 0.00 0.00 0.00 74 1007.4
20260505180053 79 276 11.0 23.0 0.00 0.00 0.00 75 1007.8
20260505175549 78 138 18.0 28.0 0.00 0.00 0.00 73 1007.5
20260505175049 79 157 16.0 31.0 0.00 0.00 0.00 73 1007.6
20260505174558 79 249 9.0 20.0 0.00 0.00 0.00 76 1007.9
20260505174551 79 160 17.0 31.0 0.00 0.00 0.00 74 1007.4
20260505174048 79 151 17.0 36.0 0.00 0.00 0.00 73 1007.6
20260505173548 79 151 17.0 36.0 0.00 0.00 0.00 72 1007.6
20260505173054 78 241 11.0 21.0 0.00 0.00 0.00 77 1008.1
20260505173049 79 134 15.0 29.0 0.00 0.00 0.00 73 1007.4
20260505172548 78 119 17.0 29.0 0.00 0.00 0.00 73 1007.5
20260505172048 78 90 17.0 29.0 0.00 0.00 0.00 73 1007.4
20260505171554 77 244 9.0 20.0 0.00 0.00 0.00 78 1007.9
20260505171551 78 119 15.0 32.0 0.00 0.00 0.00 75 1007.4
20260505171050 77 139 16.0 32.0 0.00 0.00 0.00 75 1007.5
20260505170549 77 171 15.0 30.0 0.00 0.00 0.00 76 1007.4
20260505170050 76 155 17.0 30.0 0.00 0.00 0.00 76 1007.5
20260505165549 76 148 19.0 29.0 0.00 0.00 0.00 76 1007.5
20260505165049 76 127 18.0 27.0 0.00 0.00 0.00 76 1007.7
20260505164600 76 163 11.0 27.0 0.00 0.00 0.00 77 1007.8
20260505164049 76 134 17.0 27.0 0.00 0.00 0.00 78 1007.7
20260505163549 75 140 15.0 29.0 0.00 0.00 0.00 78 1007.9
20260505163050 75 265 8.0 20.0 0.00 0.00 0.00 80 1008.3
20260505162548 75 148 15.0 29.0 0.00 0.00 0.00 78 1008.0
20260505162049 75 149 10.0 24.0 0.00 0.00 0.00 79 1008.1
20260505161602 75 283 7.0 19.0 0.00 0.00 0.00 80 1008.3
20260505161556 75 186 13.0 25.0 0.00 0.00 0.00 79 1008.0
20260505161049 75 146 11.0 28.0 0.00 0.00 0.00 79 1008.0
20260505160551 74 124 14.0 28.0 0.00 0.00 0.00 79 1008.0
20260505153107 74 146 11.0 23.0 0.00 0.00 0.00 80 1007.8
20260505153100 74 277 9.0 18.0 0.00 0.00 0.00 81 1008.1
20260505152552 74 126 13.0 23.0 0.00 0.00 0.00 80 1007.8
20260505152051 74 162 13.0 24.0 0.00 0.00 0.00 80 1007.9
20260505151603 73 233 9.0 15.0 0.00 0.00 0.00 81 1008.2
20260505151552 73 121 14.0 24.0 0.00 0.00 0.00 80 1007.8
20260505151049 73 166 13.0 24.0 0.00 0.00 0.00 80 1007.8
20260505150549 73 136 10.0 25.0 0.00 0.00 0.00 80 1007.9
20260505140549 72 146 12.0 23.0 0.00 0.00 0.00 82 1007.7
20260505140110 72 249 7.0 16.0 0.00 0.00 0.00 81 1008.1
20260505124607 71 223 6.0 15.0 0.00 0.00 0.00 82 1007.8
20260505124049 70 172 10.0 19.0 0.00 0.00 0.00 83 1007.1